This is the latest recevied weather packets stored in our database for station/object DD3UTS-13. If no packets are shown the sender has not sent any weather packets the latest 10 day(s).
| Time | Temp. | Humidity | Pressure | Rain* | Wind** | Luminosity | Snow |
|---|---|---|---|---|---|---|---|
| 1777459832 | 12.78° C | 35% | 1026.4 hPa | 0 mm | - | 532 W/m² | - |
| 1777459532 | 12.22° C | 33% | 1026.3 hPa | 0 mm | - | 534 W/m² | - |
| 1777459232 | 13.33° C | 33% | 1026.6 hPa | 0 mm | - | 531 W/m² | - |
| 1777458932 | 12.78° C | 33% | 1026.4 hPa | 0 mm | - | 537 W/m² | - |
| 1777458632 | 12.78° C | 34% | 1026.5 hPa | 0 mm | - | 539 W/m² | - |
| 1777458332 | 13.33° C | 34% | 1026.6 hPa | 0 mm | - | 531 W/m² | - |
| 1777458032 | 12.78° C | 34% | 1026.5 hPa | 0 mm | - | 532 W/m² | - |
| 1777457732 | 12.78° C | 33% | 1026.5 hPa | 0 mm | - | 532 W/m² | - |
| 1777457432 | 13.33° C | 33% | 1026.2 hPa | 0 mm | - | 533 W/m² | - |
| 1777457132 | 12.78° C | 35% | 1026.2 hPa | 0 mm | - | 533 W/m² | - |
| 1777456833 | 12.78° C | 34% | 1026.2 hPa | 0 mm | - | 535 W/m² | - |
| 1777456532 | 13.33° C | 35% | 1026.2 hPa | 0 mm | - | 533 W/m² | - |
| 1777456232 | 13.33° C | 36% | 1026.2 hPa | 0 mm | - | 534 W/m² | - |
| 1777455932 | 12.22° C | 35% | 1026.2 hPa | 0 mm | - | 529 W/m² | - |
| 1777455632 | 12.22° C | 35% | 1026.3 hPa | 0 mm | - | 522 W/m² | - |
| 1777455332 | 12.22° C | 35% | 1026.4 hPa | 0 mm | - | 522 W/m² | - |
| 1777455032 | 12.22° C | 34% | 1026.3 hPa | 0 mm | - | 481 W/m² | - |
| 1777454732 | 12.22° C | 36% | 1026.3 hPa | 0 mm | - | 464 W/m² | - |
| 1777454431 | 12.22° C | 35% | 1026.3 hPa | 0 mm | - | 466 W/m² | - |
| 1777454131 | 12.22° C | 36% | 1026.4 hPa | 0 mm | - | 499 W/m² | - |
| 1777453832 | 12.22° C | 35% | 1026.3 hPa | 0 mm | - | 508 W/m² | - |
| 1777453533 | 11.67° C | 35% | 1026.4 hPa | 0 mm | - | 505 W/m² | - |
| 1777453232 | 11.67° C | 34% | 1026.3 hPa | 0 mm | - | 487 W/m² | - |
| 1777452932 | 11.67° C | 35% | 1026.3 hPa | 0 mm | - | 506 W/m² | - |
| 1777452632 | 11.67° C | 35% | 1026.2 hPa | 0 mm | - | 512 W/m² | - |
* Rain latest 24 hours (hover to see other rain measurements)
** Current wind speed in m/s (hover to see current wind gust speed)